{"data":{"norad_id":45140,"intl_designator":"2020-008K","name":"ONEWEB-0028","alt_names":[],"object_type":"PAYLOAD","status":"ACTIVE","operator":null,"country":"UK","launch_date":"2020-02-06","launch_site_code":"TYMSC","launch_vehicle":null,"mission":null,"orbit_class":"UNKNOWN","rcs_meters":null,"size_class":null,"mass_kg":null,"dimensions":null,"purposes":["comms"],"wikipedia_slug":null,"has_3d_model":false,"image_url":null,"decayed_at":null,"tle_current":{"epoch":"2026-09-20T01:06:30.529152Z","epoch_age_seconds":53647,"freshness":"FRESH","line1":"1 45140U 20008K   26263.04618668  .00000577  00000+0  15928-2 0  9997","line2":"2 45140  87.8964   2.2136 0002313 104.2687 255.8698 13.11414793321057","mean_motion":13.11414793,"eccentricity":0.0002313,"inclination_deg":87.8964,"raan_deg":2.2136,"arg_perigee_deg":104.2687,"mean_anomaly_deg":255.8698,"bstar":0.0015928,"rev_number":32105,"period_min":109.80507522764,"perigee_km":1215.9340930576,"apogee_km":1219.4479230942,"semimajor_km":7595.8280080759,"source":"CELESTRAK","updated_at":"2026-09-20T09:00:44.546558Z"}}}